EHI
10 20 29 28 22 20 23 31 42 48 49 45 39 35 31 27 24 21 19 16 13 13 12 9 7 6 5 3 2 1 0 0 0 0 0 0 1 2 2 1 2 5 7
12 21 30 30 25 22 24 31 40 47 49 47 43 38 32 27 23 20 18 15 14 14 13 11 8 6 5 4 3 2 1 0 0 0 0 0 1 1 1 2 4 7 8
15 22 30 32 30 28 28 32 40 46 50 50 48 42 34 28 24 19 17 15 14 15 14 12 9 6 4 4 4 3 1 0 0 0 0 0 0 1 1 1 3 5 6
16 22 28 32 33 33 32 34 41 48 52 54 51 44 36 29 25 20 17 16 15 16 15 12 9 7 4 3 4 3 2 0 0 0 0 0 0 1 1 1 1 1 2
14 18 26 31 34 35 34 35 42 48 52 53 49 42 35 29 23 19 16 15 15 16 15 12 10 8 5 3 3 3 2 1 0 0 0 0 1 2 2 0 0 0 1
11 15 25 33 36 38 36 36 40 44 46 45 42 37 31 26 21 17 15 14 14 14 13 13 12 9 6 3 3 3 2 1 0 0 0 0 1 3 2 0 0 0 0
7 12 25 34 38 37 36 35 36 37 37 37 36 32 27 23 19 17 15 14 13 12 11 12 12 10 6 4 3 3 3 1 0 0 0 0 1 3 2 0 0 0 0
3 11 23 31 32 32 33 33 32 31 31 32 31 28 24 22 20 19 17 16 15 13 11 10 9 8 5 3 3 2 2 1 0 0 0 0 2 2 1 0 0 0 0
3 9 20 25 24 25 28 28 27 26 28 28 26 23 22 21 20 19 18 18 17 14 11 8 6 5 5 4 2 2 1 0 0 0 0 1 3 2 0 0 0 0 1
6 10 17 21 20 20 22 23 23 23 25 24 20 18 18 17 16 15 16 17 17 13 8 5 5 4 5 4 3 2 2 1 0 0 1 2 3 2 0 0 0 0 1
12 13 17 20 19 17 17 19 21 21 20 18 14 14 13 12 10 10 12 14 14 10 7 5 4 4 3 2 2 3 2 1 1 1 2 4 4 1 0 0 0 0 1
16 17 20 21 19 17 18 21 22 20 17 13 12 11 11 11 11 9 10 12 10 8 6 5 4 3 2 1 1 2 2 2 2 1 3 6 4 1 0 0 0 0 0
16 19 21 22 20 20 22 24 23 22 19 14 12 12 12 14 14 13 13 13 9 7 6 6 4 2 2 1 1 1 2 2 2 1 3 7 5 1 0 0 0 1 1
15 19 22 22 22 24 26 25 24 22 21 18 16 14 14 15 16 15 16 14 12 9 9 8 6 3 1 1 0 0 1 2 1 1 3 7 6 2 1 1 1 1 3
16 20 23 23 23 26 29 27 23 20 20 19 18 16 15 15 15 16 17 16 15 14 12 10 8 4 1 0 0 0 0 0 1 1 3 6 6 4 3 2 1 1 3
17 20 23 24 24 26 27 25 20 16 17 17 17 17 15 14 14 15 16 16 16 15 14 11 8 6 4 2 0 0 0 0 0 1 3 5 5 4 3 1 0 1 3
20 21 23 23 23 23 21 19 17 15 13 13 15 16 14 13 13 14 14 15 15 14 13 11 9 7 6 4 2 1 1 0 0 1 1 2 2 1 1 0 0 2 4
24 25 24 21 20 18 17 17 18 17 14 13 14 15 14 13 13 13 13 14 15 13 11 10 9 7 5 4 4 4 2 1 1 2 1 1 1 1 0 0 0 2 5
25 26 25 22 19 17 17 18 20 20 16 14 15 16 15 14 13 13 13 14 15 14 11 10 10 8 5 4 4 5 4 3 3 3 3 2 2 1 0 0 0 2 3
21 23 25 26 24 21 19 18 17 16 14 13 13 14 14 13 11 11 10 11 12 13 13 12 12 10 7 6 4 4 5 5 4 4 3 3 3 2 1 0 0 1 2
15 18 23 25 24 22 19 16 13 11 9 9 9 10 10 9 7 6 7 9 11 13 13 12 12 10 9 8 6 5 5 5 4 3 3 3 3 3 2 1 1 3 4
11 13 16 17 17 17 16 14 12 9 7 6 7 7 6 5 4 4 5 8 11 12 10 9 10 8 8 10 10 8 6 4 3 3 4 4 3 3 3 1 1 4 5
8 9 11 14 14 13 13 12 12 10 7 6 7 7 5 4 5 6 6 7 9 10 9 9 9 7 6 9 10 9 7 4 3 4 4 4 4 3 2 1 1 3 5
9 8 11 14 14 12 10 9 9 9 7 6 7 8 7 6 6 8 8 7 8 10 10 10 10 8 7 9 11 10 7 5 3 3 3 3 3 3 2 2 3 6 8
9 9 10 13 15 13 10 7 7 7 6 7 9 10 9 7 7 8 9 9 10 10 10 11 10 10 9 10 11 10 7 6 4 3 2 2 3 3 3 3 5 9 11
10 9 9 12 16 15 11 8 6 6 6 8 11 12 10 7 7 8 9 11 11 11 11 12 11 10 11 11 11 9 7 6 5 3 2 2 3 3 3 4 6 9 10
Wind_Speed
8 13 16 12 11 11 12 12 12 12 12 13 13 13 12 12 11 11 10 10 9 8 8 8 7 7 6 6 5 5 5 4 4 4 4 4 4 3 3 3 5 6 8
10 14 16 13 12 11 12 13 12 12 12 13 13 12 12 11 11 10 10 9 8 8 7 7 6 6 5 4 4 4 4 4 4 3 5 7 6 4 4 3 3 2 6
11 14 16 13 13 12 12 12 13 12 13 13 13 12 12 11 10 9 9 8 7 7 6 6 5 5 4 4 4 4 3 3 3 4 6 8 7 7 5 3 3 2 3
11 12 13 14 13 13 12 12 13 13 13 13 12 12 11 11 10 9 9 8 7 6 6 5 5 4 4 3 3 3 3 3 4 6 8 5 4 8 5 4 3 4 4
11 11 13 14 13 13 12 12 12 13 12 12 12 11 11 10 9 8 8 8 7 6 5 5 4 4 4 3 3 3 3 4 5 9 6 3 2 6 5 4 4 4 4
11 11 14 13 12 12 12 12 12 12 12 12 11 11 10 9 8 8 7 7 6 5 5 4 4 3 3 3 3 3 4 5 9 8 5 4 4 6 5 4 5 5 5
11 11 14 12 12 12 12 12 11 11 11 11 10 10 9 8 8 7 7 6 5 5 4 4 3 3 3 3 3 3 4 5 9 6 5 5 2 6 3 4 5 5 5
10 10 13 13 12 12 12 12 11 10 10 9 9 9 8 7 7 6 6 5 5 4 4 3 3 3 3 3 3 4 4 8 8 6 4 3 4 4 3 4 4 5 5
9 9 10 11 11 12 11 11 11 10 10 9 8 8 8 7 6 5 4 4 4 4 3 3 3 3 3 4 4 5 5 7 10 5 5 2 6 3 4 4 4 4 4
8 8 8 9 9 10 11 11 11 11 10 9 8 8 8 8 7 6 6 4 3 3 3 3 3 3 3 4 4 5 7 9 10 6 3 3 6 3 4 4 4 4 5
6 6 7 7 7 7 8 10 10 10 9 9 9 8 8 6 6 6 4 4 3 3 3 3 3 4 5 6 6 6 9 7 6 3 2 5 4 3 4 5 5 5 5
6 6 5 5 6 6 6 7 6 7 7 6 6 6 5 3 3 3 6 5 4 4 5 5 5 7 9 5 7 9 6 6 5 4 2 6 3 4 6 6 6 6 6
6 6 5 5 5 5 5 5 4 3 4 5 6 5 4 4 3 3 3 5 6 7 5 5 7 5 4 2 3 4 4 5 3 3 3 6 4 6 7 6 7 6 6
6 6 5 5 5 5 4 4 4 3 3 3 4 5 4 3 3 3 2 2 3 3 3 3 3 3 4 4 5 5 5 5 3 2 2 5 5 6 7 6 7 7 6
5 5 6 5 5 5 4 3 3 3 3 3 3 4 4 3 3 2 2 2 3 3 3 4 3 3 5 5 5 5 6 5 5 5 3 6 5 5 7 7 7 8 7
4 4 5 5 5 5 4 4 3 3 3 3 3 3 3 3 2 3 3 3 3 3 3 3 3 4 5 4 6 6 6 6 5 6 5 5 7 7 7 8 8 8 8
4 4 4 5 5 5 5 4 3 3 3 3 3 3 4 3 2 3 3 3 3 3 3 4 4 4 5 5 6 6 6 6 5 5 5 4 5 8 9 8 8 8 9
3 4 4 4 5 5 4 3 2 2 3 2 2 3 3 3 3 4 3 3 2 3 4 3 4 4 4 5 5 5 5 4 5 5 5 5 4 4 7 8 7 7 8
3 4 4 4 4 4 4 3 2 2 1 1 2 2 3 3 3 4 3 2 3 3 3 4 3 4 4 5 5 4 5 5 4 5 4 5 5 5 4 5 7 7 8
3 3 4 4 4 4 3 2 2 2 1 1 1 1 2 2 2 3 3 2 3 3 2 3 3 3 4 4 5 4 4 4 3 3 4 4 4 5 5 4 4 6 7
3 4 4 4 3 3 2 2 2 2 1 1 1 0 1 2 2 3 3 2 3 2 3 3 4 4 4 3 4 4 4 5 4 3 3 3 3 4 4 4 4 4 4
4 4 4 4 4 3 2 2 1 1 1 1 0 1 1 2 2 2 3 3 3 3 3 3 3 4 3 2 4 4 3 4 3 4 4 4 4 4 5 5 5 5 5
4 4 3 3 4 4 3 2 2 1 1 1 1 1 1 2 2 2 3 3 3 3 2 3 3 4 4 3 2 3 4 3 2 3 4 3 3 4 5 5 5 5 6
4 4 4 4 4 4 3 2 2 2 1 1 1 0 1 2 2 2 2 2 3 3 2 3 3 4 5 4 2 3 4 4 4 3 3 3 4 4 5 5 5 5 5
3 4 4 4 3 3 3 3 3 2 1 1 1 1 1 1 1 2 2 2 2 2 2 3 3 4 4 4 3 3 4 3 5 4 4 3 3 4 4 4 4 5 4
3 4 4 4 3 3 3 2 2 2 1 1 1 1 1 1 1 1 1 2 2 2 2 3 3 4 4 4 5 4 4 3 4 4 5 5 4 4 4 4 4 4 4
Wind_Direction
150 137 138 145 144 144 145 145 145 146 145 145 146 144 144 143 142 142 139 137 136 134 132 131 132 133 133 132 132 133 135 138 144 151 159 161 164 167 167 186 223 190 127
145 139 141 145 143 142 143 146 148 148 147 145 144 143 143 143 143 141 140 140 139 138 136 136 137 138 140 140 141 143 146 152 161 178 188 187 178 182 185 201 262 45 123
142 141 147 145 145 143 141 142 145 146 145 144 143 144 145 146 144 144 144 144 144 143 142 142 141 143 144 148 153 158 163 171 184 208 229 225 171 166 187 201 207 197 163
141 144 148 145 147 145 143 142 142 143 143 142 143 145 146 148 148 149 149 149 148 148 148 148 148 152 153 157 169 177 188 204 216 233 231 222 187 143 178 198 203 205 201
142 145 139 148 149 146 145 145 143 142 143 143 145 147 147 147 146 147 150 152 153 153 152 153 155 157 160 167 182 191 205 219 230 241 240 229 214 129 170 200 211 209 209
148 149 138 150 149 148 147 146 145 144 144 145 146 145 145 147 147 148 150 153 156 157 158 161 162 165 170 181 191 200 215 228 238 232 226 227 206 141 176 210 220 219 216
147 146 140 146 146 147 148 147 146 145 145 145 145 145 144 144 148 152 156 160 162 162 169 173 174 176 184 191 199 210 221 240 254 241 225 227 177 124 185 222 230 223 220
143 145 136 144 147 148 147 145 144 143 145 145 144 144 143 144 146 149 155 160 166 173 181 186 191 193 205 213 220 224 233 254 245 245 232 225 115 137 211 233 231 222 217
142 141 144 152 153 155 153 151 148 145 144 144 143 143 144 146 147 148 152 159 169 178 189 201 210 214 224 230 233 238 244 255 263 239 230 221 120 165 221 227 223 219 216
138 142 146 152 157 162 158 155 154 150 148 149 150 151 152 158 162 166 175 162 177 183 191 207 225 235 239 236 236 238 241 244 246 239 225 138 125 183 226 234 232 233 225
136 141 151 155 159 164 159 153 159 159 156 163 163 161 179 186 180 183 163 157 186 195 203 207 222 232 237 216 219 230 236 241 238 248 236 109 139 209 237 238 240 241 235
147 151 151 152 160 164 158 155 168 171 165 185 172 176 190 184 199 202 149 176 199 212 215 208 224 226 238 222 195 213 235 241 242 227 164 126 179 232 241 241 242 244 243
151 154 156 160 164 167 162 164 167 171 168 184 179 186 192 196 196 206 187 181 199 212 220 198 218 231 240 257 260 240 250 253 244 239 151 144 198 236 243 243 242 243 245
153 156 159 161 166 172 167 165 170 168 170 179 176 202 197 205 214 210 222 219 215 214 222 237 238 236 250 251 255 259 253 249 248 246 157 163 211 233 242 244 241 242 246
157 159 160 164 162 162 163 176 168 170 172 174 189 196 219 219 224 220 230 235 240 233 221 232 240 242 250 243 245 249 257 256 252 245 194 177 207 237 245 247 245 246 249
167 168 161 164 159 163 168 176 172 177 174 186 190 186 212 231 230 231 227 227 237 244 252 249 244 243 247 250 247 244 249 253 247 251 250 191 198 223 239 242 244 244 248
172 164 167 166 158 165 176 181 174 179 185 193 185 188 201 219 225 243 239 229 235 243 238 242 243 244 244 243 244 245 244 247 252 248 255 254 221 207 220 233 245 249 252
158 157 166 162 157 166 171 180 178 184 185 188 185 183 195 211 225 244 248 243 248 246 244 245 247 251 249 251 249 249 246 238 241 242 246 247 257 246 210 207 232 247 255
150 156 160 161 162 168 169 172 178 170 175 194 187 190 192 207 222 246 258 265 257 255 257 259 246 259 257 260 255 245 249 244 239 240 247 254 251 255 258 190 206 233 247
163 164 166 169 167 174 170 170 167 159 170 190 193 194 216 217 228 256 247 253 259 255 259 265 264 258 268 266 266 259 250 250 244 242 246 244 251 252 255 265 233 220 224
177 170 169 167 162 174 168 182 180 185 191 194 180 121 261 273 255 263 278 255 265 261 266 271 266 249 250 260 262 254 240 228 236 240 247 260 251 254 258 258 260 269 234
189 184 178 173 166 178 172 184 199 204 203 170 183 168 249 263 267 256 280 273 265 259 260 270 273 270 261 253 274 269 251 217 216 228 232 236 255 264 263 256 256 255 265
186 187 177 173 174 179 177 175 168 172 201 174 213 206 240 255 251 273 275 276 279 272 264 267 269 264 270 250 263 282 278 272 274 217 228 240 250 260 266 264 253 256 258
187 180 175 172 177 176 181 180 192 209 219 237 239 200 226 243 263 269 275 273 276 282 280 266 266 266 267 268 241 251 275 306 281 274 244 236 247 252 267 274 274 263 261
179 173 167 168 171 176 190 197 215 223 240 242 223 181 246 232 267 275 265 271 270 277 287 284 273 271 270 277 276 264 257 254 262 273 279 278 260 255 261 266 276 273 264
161 162 161 164 169 181 196 203 215 218 227 223 236 225 237 223 252 270 272 287 283 283 263 263 269 265 279 284 283 277 272 269 268 270 275 276 279 273 265 270 270 273 273